Niaqornaarsuk Heliport

Jump to: basic info | weather | comments

Related pages: nearby airports | nearby navaids | notams | map

Basic information (top)

Codes: QMK BGNK
Location: lon 68.236381, lat -52.852148, elev 152 ft / 46 m msl
Status: heliport
Scheduled airline service: yes
Links: Wikipedia Mobile

Weather (top)

Current conditions for Aasiaat Airport 29nm (54km) N (rec'd 2014/04/24 08:50Z):

BGAA 240850Z 21004KT 9999 -SN OVC024 M08/M13 Q1022 RMK 8SC

Airport forecast for Ilulissat Airport 72nm (133km) NNE (rec'd 2012/08/16 15:15Z):

TAF TAF BGJN 161500Z 1615/1703 10012KT 9999 SCT200

Latest comments (top)

No comments yet for Niaqornaarsuk Heliport

More... (top)

See also NOTAMs and nearby airports and navaids, or visit the Niaqornaarsuk Heliport page at the main OurAirports website..